Regional Weather Roundup
Issued by NWS Goodland, KS

Home | Current Version | Previous Version | Graphics & Text | Print | Product List | Glossary On
Versions: 1 2 3 4 5 6 7 8 9 10 11 12 13 14 15 16 17 18 19 20 21 22 23 24 25 26 27 28 29 30 31 32 33 34 35 36 37 38 39 40 41 42 43 44 45 46 47 48 49 50
000
ASUS43 KGLD 180659
RWRGLD

GOODLAND FORECAST AREA HOURLY WEATHER ROUNDUP
NATIONAL WEATHER SERVICE GOODLAND KS
100 AM MDT THU SEP 18 2014

...OFFICIAL OBSERVATIONS...

CITY           SKY/WX    TMP DP  RH WIND       PRES   REMARKS
GOODLAND KS    PTCLDY    61  60  97 S6        29.97F
HILL CITY KS   CLEAR     66  64  93 NE5       29.93R
IMPERIAL NEB   PTCLDY    64  61  90 SE7       29.97F
MCCOOK NEB     MOCLDY    63  61  93 CALM      29.96S
AKRON CO       PTCLDY    59  45  59 W10       30.03R
BURLINGTON CO  PTCLDY    60  52  74 S8        30.00S
LIMON CO       CLEAR     54  42  64 NW5       30.07F
$$

...UNOFFICIAL OBSERVATIONS...

CITY           SKY/WX    TMP DP  RH WIND       PRES   REMARKS
GOVE KS          N/A     69  32  25 MISG        N/A
SHARON SPRINGS   N/A     64  62  92 CALM        N/A
WAKEENEY KS      N/A     67  65  93 MISG        N/A
TRENTON NEB      N/A     66  32  28 E8          N/A
YUMA CO          N/A     58  51  78 CALM        N/A
$$


USA.gov is the U.S. government's official web portal to all federal, state and local government web resources and services.